GW3397 Weather Reports


time (UTC)temp
F
wind
direction
speed
knots
gust
knots
rain 1hr
in
rain 24hr
in
rain mn
in
humidity
%
barometer
mb
20260510032300 50 331 0.0 0.0 0.00 0.23 0.23 97 1012.1
20260510031756 50 204 0.9 2.6 0.00 0.23 0.23 98 1012.0
20260510031252 50 147 0.9 2.6 0.00 0.23 0.23 98 1011.8
20260510030750 50 136 1.7 4.3 0.00 0.23 0.23 98 1012.0
20260510030243 50 159 1.7 2.6 0.00 0.23 0.23 98 1011.8
20260510025740 49 159 0.9 1.7 0.00 0.23 0.23 98 1011.9
20260510025238 50 117 2.6 4.3 0.00 0.23 0.23 98 1011.6
20260510024734 49 114 0.0 0.0 0.00 0.23 0.23 98 1011.6
20260510024230 49 69 0.0 0.0 0.00 0.23 0.23 98 1011.9
20260510023726 49 265 0.0 0.0 0.00 0.23 0.23 98 1011.6
20260510023223 49 348 0.0 0.0 0.00 0.23 0.23 98 1011.8
20260510022719 49 27 0.0 0.0 0.00 0.23 0.23 98 1012.1
20260510022214 49 350 0.0 0.0 0.00 0.23 0.23 98 1012.2
20260510021709 49 320 0.9 0.9 0.00 0.23 0.23 98 1012.2
20260510021207 49 331 0.0 0.9 0.00 0.23 0.23 98 1012.2
20260510020702 50 305 0.0 0.0 0.00 0.23 0.23 98 1012.2
20260510020157 50 132 0.9 1.7 0.00 0.23 0.23 98 1012.1
20260510015653 50 118 2.6 4.3 0.00 0.23 0.23 98 1011.9
20260510015150 50 138 2.6 2.6 0.00 0.23 0.23 98 1011.7
20260510014649 50 132 2.6 4.3 0.00 0.23 0.23 98 1011.7
20260510014147 50 141 2.6 6.1 0.00 0.23 0.23 98 1011.5
20260510013642 51 136 4.3 6.1 0.00 0.23 0.23 98 1011.6
20260510013138 51 118 4.3 6.1 0.00 0.23 0.23 98 1011.5
20260510012638 51 134 5.2 7.0 0.00 0.23 0.23 98 1011.9
20260510012134 51 133 4.3 6.1 0.00 0.23 0.23 98 1011.9
20260510011629 51 107 4.3 7.0 0.00 0.23 0.23 98 1012.0
20260510011125 51 126 4.3 7.0 0.00 0.23 0.23 98 1011.7
20260510010621 50 137 6.1 7.0 0.00 0.23 0.23 98 1011.6
20260510010119 50 116 5.2 6.1 0.00 0.23 0.23 98 1011.6
20260510005614 50 113 6.1 8.7 0.00 0.23 0.23 98 1011.6
20260510005112 50 119 4.3 7.0 0.00 0.23 0.23 98 1011.6
20260510004610 50 128 5.2 8.7 0.00 0.23 0.23 98 1011.4
20260510004107 50 156 6.1 7.0 0.00 0.23 0.23 98 1011.8
20260510003604 50 112 4.3 6.1 0.00 0.23 0.23 98 1011.7
20260510003100 50 129 2.6 5.2 0.00 0.23 0.23 98 1011.6
20260510002554 50 91 3.5 6.1 0.00 0.23 0.23 98 1011.4
20260510002051 50 73 1.7 2.6 0.00 0.23 0.23 98 1011.5
20260510001548 50 107 0.9 2.6 0.00 0.23 0.23 98 1011.4
20260510001047 50 97 3.5 4.3 0.00 0.23 0.23 98 1011.6
20260510000542 50 86 0.9 2.6 0.00 0.23 0.23 98 1011.3
20260510000039 51 127 1.7 2.6 0.00 0.23 0.23 98 1011.5
20260509235536 51 88 2.6 4.3 0.00 0.23 0.23 98 1011.3
20260509235033 51 83 1.7 4.3 0.00 0.23 0.23 98 1011.5
20260509234529 51 92 1.7 4.3 0.00 0.23 0.23 98 1011.5
20260509234027 51 69 2.6 2.6 0.00 0.23 0.23 98 1011.3
20260509233524 51 88 2.6 2.6 0.00 0.23 0.23 98 1011.3
20260509233021 51 58 0.9 2.6 0.00 0.23 0.23 98 1011.2
20260509232518 51 75 1.7 2.6 0.00 0.23 0.23 98 1011.0
20260509232015 51 91 1.7 4.3 0.00 0.23 0.23 98 1011.3
20260509231511 51 82 3.5 5.2 0.00 0.23 0.23 98 1011.0
20260509231009 51 99 2.6 4.3 0.00 0.23 0.23 98 1011.1
20260509230505 51 93 2.6 2.6 0.00 0.23 0.23 98 1011.0
20260509230003 51 85 2.6 5.2 0.00 0.23 0.23 98 1010.8
20260509225458 51 66 1.7 2.6 0.00 0.23 0.23 98 1011.0
20260509224954 51 120 2.6 5.2 0.00 0.23 0.23 98 1011.1
20260509224449 51 62 1.7 2.6 0.00 0.23 0.23 98 1011.0
20260509223946 51 72 1.7 4.3 0.00 0.23 0.23 98 1011.1
20260509223443 51 64 1.7 4.3 0.00 0.23 0.23 98 1011.0
20260509222941 51 66 2.6 5.2 0.00 0.23 0.23 98 1011.1
20260509222436 51 59 1.7 4.3 0.00 0.23 0.23 98 1010.9
20260509221932 52 39 1.7 4.3 0.00 0.23 0.23 98 1010.9
20260509221429 52 95 1.7 2.6 0.00 0.23 0.23 98 1011.0
20260509220924 52 70 1.7 2.6 0.00 0.23 0.23 98 1010.9
20260509220420 52 100 1.7 5.2 0.00 0.23 0.23 98 1011.1
20260509215917 52 137 5.2 6.1 0.00 0.23 0.23 98 1010.9
20260509215412 51 115 6.1 7.0 0.00 0.23 0.23 98 1010.9
20260509214910 51 121 2.6 4.3 0.00 0.23 0.23 98 1011.1
20260509214407 51 115 3.5 4.3 0.00 0.23 0.23 98 1011.4
20260509213904 51 77 1.7 4.3 0.00 0.23 0.23 98 1011.3
20260509213359 51 147 3.5 5.2 0.00 0.23 0.23 98 1011.3
20260509212857 51 67 1.7 6.1 0.00 0.23 0.23 98 1011.2
20260509212354 51 55 3.5 5.2 0.00 0.23 0.23 98 1011.3
20260509211850 51 105 2.6 2.6 0.00 0.23 0.23 98 1011.5
20260509211341 51 119 1.7 5.2 0.00 0.23 0.23 98 1011.3
20260509210837 51 114 2.6 4.3 0.00 0.23 0.23 98 1011.6
20260509210335 51 114 1.7 5.2 0.00 0.23 0.23 98 1011.6
20260509205834 51 111 6.1 7.0 0.00 0.23 0.23 98 1011.6
20260509205329 51 83 2.6 6.1 0.00 0.23 0.23 98 1011.5
20260509204826 51 102 5.2 6.1 0.00 0.23 0.23 98 1011.7
20260509204322 51 87 4.3 6.1 0.00 0.23 0.23 98 1011.7
20260509203819 51 94 4.3 6.1 0.00 0.23 0.23 98 1011.7
20260509203316 51 127 2.6 7.0 0.00 0.23 0.23 98 1011.6
20260509202812 51 134 4.3 6.1 0.00 0.23 0.23 98 1011.7
20260509202309 51 74 3.5 5.2 0.00 0.23 0.23 98 1011.8
20260509201808 50 113 0.9 6.1 0.00 0.23 0.23 98 1011.8
20260509201305 51 79 1.7 4.3 0.00 0.23 0.23 98 1011.8
20260509200801 51 89 2.6 4.3 0.00 0.23 0.23 98 1011.8
20260509200256 51 134 2.6 4.3 0.00 0.23 0.23 98 1011.8
20260509195752 50 36 1.7 2.6 0.00 0.23 0.23 98 1012.0
20260509195247 50 74 2.6 4.3 0.00 0.23 0.23 97 1012.0
20260509194742 50 110 1.7 2.6 0.00 0.23 0.23 97 1012.3
20260509194239 50 59 2.6 2.6 0.00 0.23 0.23 97 1012.1
20260509193736 50 58 0.9 4.3 0.07 0.23 0.23 97 1012.4
20260509193235 50 101 3.5 4.3 0.00 0.22 0.22 97 1012.3
20260509192732 50 89 2.6 4.3 0.00 0.22 0.22 97 1012.3
20260509192227 50 61 2.6 4.3 0.00 0.22 0.22 97 1012.6
20260509191723 50 67 2.6 4.3 0.00 0.22 0.22 97 1012.5
20260509191219 50 68 2.6 2.6 0.00 0.22 0.22 97 1012.5
20260509190715 50 50 1.7 6.1 0.00 0.22 0.22 97 1012.4
20260509190213 51 86 0.9 2.6 0.00 0.22 0.22 97 1012.3
20260509185710 50 110 3.5 5.2 0.00 0.22 0.22 97 1012.5
20260509185206 50 126 4.3 6.1 0.00 0.22 0.22 97 1012.5
20260509184704 51 53 0.9 6.1 0.00 0.22 0.22 97 1012.3
20260509184201 50 126 3.5 5.2 0.00 0.22 0.22 97 1012.4
20260509183657 50 132 6.1 7.0 0.00 0.22 0.22 97 1012.6
20260509183152 50 110 3.5 7.0 0.00 0.22 0.22 97 1012.5
20260509182648 50 112 2.6 6.1 0.00 0.22 0.22 97 1012.7
20260509182146 50 98 1.7 5.2 0.00 0.22 0.22 97 1012.5
20260509181643 50 114 3.5 7.8 0.00 0.22 0.22 97 1012.3
20260509181141 49 74 2.6 5.2 0.00 0.22 0.22 97 1012.6
20260509180637 49 107 5.2 6.1 0.00 0.22 0.22 97 1012.6
20260509180134 49 102 4.3 7.0 0.00 0.22 0.22 97 1012.6
20260509175629 49 133 3.5 7.0 0.00 0.22 0.22 97 1012.3
20260509175127 49 136 5.2 7.0 0.00 0.22 0.22 97 1012.6
20260509174622 49 101 3.5 6.1 0.00 0.22 0.22 97 1012.6
20260509174118 48 127 3.5 6.1 0.00 0.22 0.22 97 1012.5
20260509173614 49 111 3.5 4.3 0.00 0.22 0.22 97 1012.7
20260509173109 48 78 3.5 7.0 0.00 0.22 0.22 97 1012.7
20260509172607 48 59 5.2 7.0 0.00 0.22 0.22 97 1012.6
20260509172103 48 59 3.5 7.0 0.00 0.22 0.22 97 1012.7
20260509171558 48 95 5.2 6.1 0.00 0.22 0.22 97 1012.9
20260509171054 48 120 1.7 5.2 0.00 0.22 0.22 97 1012.8
20260509170551 48 85 3.5 6.1 0.05 0.22 0.22 97 1012.7
20260509170046 47 83 3.5 5.2 0.05 0.22 0.22 97 1013.0
20260509165545 47 60 0.9 4.3 0.00 0.21 0.21 97 1013.1
20260509165040 47 91 2.6 4.3 0.00 0.21 0.21 97 1013.1
20260509164537 47 97 2.6 4.3 0.07 0.21 0.21 97 1013.0
20260509164032 47 113 2.6 5.2 0.07 0.21 0.21 97 1013.2
20260509163531 47 90 4.3 5.2 0.00 0.20 0.20 97 1013.2
20260509163026 47 105 5.2 7.0 0.00 0.20 0.20 97 1013.3
20260509162524 47 48 3.5 6.1 0.00 0.20 0.20 97 1013.3
20260509162019 47 81 1.7 4.3 0.05 0.20 0.20 97 1013.6
20260509161516 47 79 1.7 1.7 0.00 0.19 0.19 97 1013.5
20260509161011 46 60 2.6 4.3 0.00 0.19 0.19 97 1013.7
20260509160507 46 110 4.3 7.0 0.00 0.19 0.19 97 1014.0
20260509160003 46 110 3.5 6.1 0.00 0.19 0.19 97 1013.7
20260509155459 46 100 7.0 7.8 0.00 0.19 0.19 97 1014.1
20260509154955 46 125 6.1 9.6 0.00 0.19 0.19 96 1014.1
20260509154451 46 104 5.2 8.7 0.07 0.19 0.19 97 1014.1
20260509153949 45 134 3.5 5.2 0.07 0.19 0.19 97 1014.2
20260509153446 45 88 3.5 8.7 0.00 0.18 0.18 97 1014.3
20260509152942 45 118 4.3 5.2 0.00 0.18 0.18 97 1014.3
20260509152438 45 113 2.6 5.2 0.05 0.18 0.18 97 1014.6
20260509151930 45 96 3.5 4.3 0.05 0.18 0.18 97 1014.5
20260509151426 44 129 3.5 6.1 0.00 0.17 0.17 96 1014.8
20260509150925 44 125 4.3 6.1 0.07 0.17 0.17 96 1014.7
20260509150421 44 45 1.7 5.2 0.07 0.17 0.17 96 1014.7
20260509145920 44 123 0.9 6.1 0.00 0.16 0.16 96 1014.7
20260509145420 44 71 4.3 5.2 0.05 0.16 0.16 96 1014.6
20260509144915 44 49 2.6 5.2 0.05 0.16 0.16 96 1014.6
20260509144412 44 143 2.6 2.6 0.07 0.15 0.15 96 1014.8
20260509143909 43 80 2.6 4.3 0.07 0.15 0.15 96 1015.0
20260509143407 43 86 0.9 4.3 0.05 0.14 0.14 96 1014.7
20260509142903 43 50 0.9 4.3 0.05 0.14 0.14 96 1014.7
20260509142400 43 77 0.9 2.6 0.07 0.13 0.13 96 1015.0
20260509141855 43 114 2.6 4.3 0.05 0.12 0.12 96 1014.8
20260509141352 43 95 0.0 1.7 0.12 0.12 0.12 96 1014.9
20260509140849 43 107 2.6 4.3 0.07 0.11 0.11 95 1014.8
20260509140346 43 111 4.3 5.2 0.07 0.10 0.10 95 1015.0
20260509135844 42 103 2.6 2.6 0.07 0.10 0.10 95 1014.9
20260509135341 42 95 3.5 4.3 0.00 0.09 0.09 95 1014.9
20260509134838 42 109 1.7 1.7 0.05 0.09 0.09 95 1015.0
20260509134335 42 97 2.6 2.6 0.07 0.08 0.08 95 1014.7
20260509133832 42 83 1.7 2.6 0.07 0.08 0.08 94 1014.6
20260509133329 42 25 1.7 2.6 0.05 0.07 0.07 94 1014.6
20260509132828 43 49 0.9 4.3 0.05 0.07 0.07 94 1014.8
20260509132326 43 96 4.3 6.1 0.07 0.06 0.06 94 1014.6
20260509131822 42 140 4.3 5.2 0.07 0.06 0.06 94 1014.8
20260509131319 42 92 0.9 1.7 0.00 0.05 0.05 94 1015.0
20260509130815 42 147 2.6 4.3 0.05 0.05 0.05 93 1014.9
20260509130311 42 108 2.6 4.3 0.00 0.04 0.04 93 1015.0
20260509125808 42 121 3.5 4.3 0.07 0.04 0.04 93 1015.1
20260509125307 42 34 1.7 2.6 0.07 0.04 0.04 93 1015.1
20260509124801 42 94 0.9 1.7 0.00 0.03 0.03 93 1015.1
20260509124257 42 125 4.3 4.3 0.00 0.03 0.03 93 1014.9
20260509123756 42 108 2.6 2.6 0.05 0.03 0.03 93 1015.2
20260509123253 42 134 2.6 4.3 0.05 0.03 0.03 92 1015.2
20260509122748 42 126 1.7 2.6 0.00 0.02 0.02 93 1015.1
20260509122246 42 126 0.9 2.6 0.00 0.02 0.02 93 1015.2
20260509121742 42 131 2.6 2.6 0.07 0.02 0.02 92 1015.3
20260509121239 41 140 2.6 2.6 0.07 0.02 0.02 92 1015.3
20260509120738 41 96 2.6 2.6 0.00 0.01 0.01 92 1015.4
20260509120235 41 131 1.7 2.6 0.05 0.01 0.01 92 1015.1
20260509115733 41 82 0.0 2.6 0.05 0.01 0.01 91 1015.4
20260509115230 41 78 0.9 1.7 0.00 0.00 0.00 91 1015.3
20260509114728 41 109 2.6 2.6 0.00 0.00 0.00 91 1015.5
20260509114226 41 132 1.7 1.7 0.00 0.00 0.00 91 1015.3
20260509113725 41 63 1.7 4.3 0.00 0.00 0.00 91 1015.3
20260509113222 41 78 0.9 1.7 0.00 0.00 0.00 91 1015.2
20260509112718 41 86 0.9 1.7 0.00 0.00 0.00 91 1015.2
20260509112216 40 88 1.7 4.3 0.00 0.00 0.00 90 1015.3
20260509111712 40 84 2.6 4.3 0.00 0.00 0.00 90 1015.3
20260509111209 41 124 1.7 4.3 0.00 0.00 0.00 90 1015.3
20260509110707 41 87 1.7 4.3 0.00 0.00 0.00 89 1015.2
20260509110203 41 72 2.6 5.2 0.00 0.00 0.00 89 1015.2
20260509105701 41 61 0.0 2.6 0.00 0.00 0.00 90 1015.0
20260509105158 41 88 0.9 2.6 0.00 0.00 0.00 90 1015.0
20260509104655 40 80 0.9 4.3 0.00 0.00 0.00 90 1014.8
20260509104152 40 124 1.7 2.6 0.00 0.00 0.00 90 1014.8
20260509103650 40 78 2.6 4.3 0.00 0.00 0.00 90 1015.0
20260509103148 40 47 1.7 2.6 0.00 0.00 0.00 90 1015.0
20260509102646 40 75 0.9 4.3 0.00 0.00 0.00 90 1014.9
20260509102142 40 79 1.7 1.7 0.00 0.00 0.00 90 1014.8
20260509101638 40 32 0.0 0.9 0.00 0.00 0.00 90 1014.6
20260509101135 40 142 1.7 2.6 0.00 0.00 0.00 90 1014.9
20260509100633 39 108 0.9 1.7 0.00 0.00 0.00 90 1014.7
20260509100130 39 36 0.0 2.6 0.00 0.00 0.00 91 1014.7
20260509095626 39 31 0.0 2.6 0.00 0.00 0.00 91 1014.7
20260509095124 39 83 1.7 1.7 0.00 0.00 0.00 91 1014.8
20260509094620 39 78 1.7 2.6 0.00 0.00 0.00 91 1015.0
20260509094117 39 116 1.7 2.6 0.00 0.00 0.00 91 1015.0
20260509093616 38 37 0.0 0.9 0.00 0.00 0.00 91 1015.1
20260509093112 38 44 0.9 1.7 0.00 0.00 0.00 91 1015.2
20260509092610 38 103 0.0 2.6 0.00 0.00 0.00 91 1015.1
20260509092108 38 53 0.9 2.6 0.00 0.00 0.00 91 1015.1
20260509091606 38 115 2.6 2.6 0.00 0.00 0.00 92 1015.0
20260509091102 37 71 1.7 4.3 0.00 0.00 0.00 92 1015.3
20260509090600 37 95 1.7 2.6 0.00 0.00 0.00 93 1015.3
20260509090057 37 345 0.0 0.0 0.00 0.00 0.00 93 1015.3
20260509085554 37 324 0.0 0.0 0.00 0.00 0.00 93 1015.3
20260509085050 37 345 0.0 0.9 0.00 0.00 0.00 93 1015.4
20260509084547 36 24 0.0 0.9 0.00 0.00 0.00 93 1015.3
20260509084044 36 340 0.0 0.0 0.00 0.00 0.00 92 1015.5
20260509083542 36 346 0.0 0.0 0.00 0.00 0.00 92 1015.7
20260509083038 36 30 0.0 0.9 0.00 0.00 0.00 92 1015.6
20260509082536 36 12 0.0 0.9 0.00 0.00 0.00 92 1015.5
20260509082033 36 3 0.0 0.9 0.00 0.00 0.00 92 1015.8
20260509081530 36 347 0.9 0.9 0.00 0.00 0.00 92 1015.7
20260509081027 35 334 0.9 0.9 0.00 0.00 0.00 92 1015.5
20260509080525 35 356 0.0 0.9 0.00 0.00 0.00 92 1015.7
20260509080023 35 1 0.0 0.0 0.00 0.00 0.00 92 1015.4
20260509075520 35 341 0.0 0.9 0.00 0.00 0.00 92 1015.2
20260509075018 35 32 1.7 1.7 0.00 0.00 0.00 92 1015.2
20260509074514 35 109 0.9 0.9 0.00 0.00 0.00 92 1015.3
20260509074011 35 167 1.7 1.7 0.00 0.00 0.00 92 1015.0
20260509073508 34 254 0.9 0.9 0.00 0.00 0.00 92 1015.2
20260509073004 34 347 0.9 0.9 0.00 0.00 0.00 92 1015.3
20260509072501 35 286 0.0 0.9 0.00 0.00 0.00 92 1015.3
20260509071957 34 186 1.7 1.7 0.00 0.00 0.00 92 1015.3
20260509071454 34 340 0.0 0.0 0.00 0.00 0.00 91 1015.2
20260509070952 35 303 0.0 0.0 0.00 0.00 0.00 91 1015.2
20260509070449 35 156 1.7 2.6 0.00 0.00 0.00 91 1015.4
20260509065944 34 256 0.9 0.9 0.00 0.00 0.00 91 1015.5
20260509065440 34 296 0.9 0.9 0.00 0.00 0.00 91 1015.5
20260509064936 34 153 1.7 1.7 0.00 0.00 0.00 92 1015.5
20260509064434 34 310 0.0 0.0 0.00 0.00 0.00 91 1015.6
20260509063932 34 2 0.0 0.0 0.00 0.00 0.00 91 1015.6
20260509063427 35 328 0.0 0.0 0.00 0.00 0.00 91 1015.6
20260509062924 34 312 0.0 0.0 0.00 0.00 0.00 91 1015.7
20260509062422 35 294 0.0 0.0 0.00 0.00 0.00 91 1015.6
20260509061919 35 319 0.0 0.0 0.00 0.00 0.00 90 1016.0
20260509061417 35 226 0.0 0.0 0.00 0.00 0.00 90 1015.6
20260509060913 35 272 0.0 0.0 0.00 0.00 0.00 91 1015.7
20260509060410 35 293 0.0 0.0 0.00 0.00 0.00 91 1015.6
20260509055900 35 315 0.0 0.0 0.00 0.00 0.00 91 1015.8
20260509055356 35 308 0.0 0.0 0.00 0.00 0.00 91 1015.8
20260509054853 35 293 0.0 0.0 0.00 0.00 0.00 90 1016.0
20260509054350 35 341 0.0 0.0 0.00 0.00 0.00 90 1016.1
20260509053848 36 306 0.0 0.0 0.00 0.00 0.00 90 1016.3
20260509053345 36 319 0.0 0.0 0.00 0.00 0.00 89 1016.0
20260509052843 37 295 0.0 0.0 0.00 0.00 0.00 89 1016.2
20260509052340 37 330 0.0 0.0 0.00 0.00 0.00 88 1016.3
20260509051838 37 302 0.0 0.0 0.00 0.00 0.00 86 1016.2
20260509051336 38 351 0.0 0.9 0.00 0.00 0.00 86 1016.1
20260509050832 38 341 0.0 0.9 0.00 0.00 0.00 86 1016.2
20260509050329 38 346 0.9 0.9 0.00 0.00 0.00 86 1016.3
20260509045826 39 336 0.0 0.0 0.00 0.00 0.00 86 1016.3
20260509045323 39 336 0.0 0.0 0.00 0.00 0.00 86 1016.2
20260509044820 39 336 0.0 0.0 0.00 0.00 0.00 85 1016.2
20260509044318 39 357 0.0 0.0 0.00 0.00 0.00 85 1016.1
20260509043814 39 346 0.9 0.9 0.00 0.00 0.00 84 1016.2
20260509043310 38 267 0.0 0.9 0.00 0.00 0.00 85 1016.2
20260509042806 38 224 0.9 1.7 0.00 0.00 0.00 85 1016.3
20260509042306 38 320 0.9 0.9 0.00 0.00 0.00 84 1016.3
20260509041759 37 296 0.0 0.9 0.00 0.00 0.00 85 1016.3
20260509041256 37 340 0.0 0.0 0.00 0.00 0.00 84 1016.3
20260509040755 38 46 0.0 0.9 0.00 0.00 0.00 85 1016.1
20260509040252 38 357 0.0 0.0 0.00 0.00 0.00 83 1016.0
20260509035749 38 30 0.0 0.9 0.00 0.03 0.03 82 1016.0
20260509035246 39 65 0.0 0.0 0.00 0.03 0.03 81 1016.1
20260509034742 39 185 0.9 0.9 0.00 0.03 0.03 79 1015.9
20260509034240 38 176 0.9 1.7 0.00 0.03 0.03 82 1015.9
20260509033737 38 67 0.9 0.9 0.00 0.03 0.03 85 1016.0
20260509033234 38 65 0.0 0.0 0.00 0.03 0.03 84 1015.8
20260509032731 38 142 1.7 1.7 0.00 0.03 0.03 85 1015.9